GAF513 EDDC-ETNT

Flight info

Callsign GAF513
Flight time 1h 6m
Altitude 23000
Route BEBEX7E BEBEX Q230 TADUV T804 HLZ L980 SAS DCT NIE Z595 REVLA VFR DCT
Aircraft A319/M-SDE3FGHIRWY/LB1

Departure

Time 2026-05-08 13:26
Airport Dresden Airport (EDDC)

Arrival

Time 2026-05-08 14:33
Airport Wittmundhafen Air Base (ETNT)
Time Latitude Longitude Altitude Speed Heading
2026-05-08 12:54 51.13158 13.77006 752 ft 0 kts 310°
2026-05-08 13:18 51.13168 13.76987 750 ft 5 kts 310°
2026-05-08 13:18 51.13167 13.76914 749 ft 9 kts 242°
2026-05-08 13:19 51.13107 13.76830 749 ft 14 kts 220°
2026-05-08 13:19 51.13016 13.76705 748 ft 20 kts 223°
2026-05-08 13:19 51.12893 13.76533 750 ft 27 kts 221°
2026-05-08 13:19 51.12744 13.76328 748 ft 25 kts 220°
2026-05-08 13:20 51.12651 13.76203 749 ft 14 kts 220°
2026-05-08 13:20 51.12563 13.76082 750 ft 20 kts 221°
2026-05-08 13:20 51.12444 13.75916 750 ft 26 kts 221°
2026-05-08 13:20 51.12372 13.75803 749 ft 7 kts 246°
2026-05-08 13:21 51.12386 13.75698 749 ft 12 kts 292°
2026-05-08 13:21 51.12399 13.75645 749 ft 0 kts 292°
2026-05-08 13:23 51.12410 13.75607 747 ft 7 kts 295°
2026-05-08 13:24 51.12449 13.75528 748 ft 11 kts 311°
2026-05-08 13:24 51.12493 13.75503 752 ft 6 kts 28°
2026-05-08 13:24 51.12510 13.75525 749 ft 0 kts 40°
2026-05-08 13:25 51.12513 13.75531 750 ft 4 kts 40°
2026-05-08 13:26 51.12683 13.75766 750 ft 71 kts 41°
2026-05-08 13:26 51.13239 13.76530 752 ft 138 kts 41°
2026-05-08 13:26 51.14035 13.77642 1224 ft 153 kts 43°
2026-05-08 13:26 51.14827 13.78777 2042 ft 154 kts 41°
2026-05-08 13:27 51.15636 13.79909 2800 ft 157 kts 41°
2026-05-08 13:27 51.16512 13.81127 3204 ft 179 kts 41°
2026-05-08 13:27 51.17514 13.82514 3558 ft 206 kts 41°
2026-05-08 13:27 51.18664 13.84106 4074 ft 231 kts 41°
2026-05-08 13:28 51.20005 13.85717 4703 ft 254 kts 26°
2026-05-08 13:28 51.21777 13.86186 5275 ft 267 kts 352°
2026-05-08 13:28 51.23538 13.85229 5925 ft 269 kts 338°
2026-05-08 13:28 51.25292 13.84121 6270 ft 271 kts 339°
2026-05-08 13:29 51.27098 13.83231 6593 ft 272 kts 345°
2026-05-08 13:29 51.28926 13.82423 6846 ft 273 kts 340°
2026-05-08 13:29 51.30604 13.81018 7050 ft 274 kts 321°
2026-05-08 13:29 51.31788 13.78656 7154 ft 274 kts 295°
2026-05-08 13:30 51.32263 13.75717 7166 ft 274 kts 275°
2026-05-08 13:30 51.32402 13.72709 7185 ft 276 kts 274°
2026-05-08 13:30 51.32559 13.69639 7967 ft 275 kts 275°
2026-05-08 13:30 51.32734 13.66574 9043 ft 279 kts 276°
2026-05-08 13:31 51.32919 13.63454 10047 ft 284 kts 276°
2026-05-08 13:31 51.33111 13.60221 10597 ft 304 kts 276°
2026-05-08 13:31 51.33318 13.56726 10925 ft 328 kts 276°
2026-05-08 13:31 51.33535 13.52967 11166 ft 351 kts 275°
2026-05-08 13:32 51.33762 13.48965 11376 ft 372 kts 275°
2026-05-08 13:32 51.33998 13.44793 11906 ft 380 kts 275°
2026-05-08 13:32 51.34232 13.40563 12607 ft 383 kts 275°
2026-05-08 13:32 51.34465 13.36297 13346 ft 386 kts 275°
2026-05-08 13:33 51.34698 13.32013 14070 ft 388 kts 275°
2026-05-08 13:33 51.34928 13.27691 14706 ft 391 kts 275°
2026-05-08 13:33 51.35159 13.23333 15335 ft 395 kts 275°
2026-05-08 13:33 51.35436 13.18946 15956 ft 398 kts 278°
2026-05-08 13:34 51.35959 13.14580 16551 ft 402 kts 281°
2026-05-08 13:34 51.36496 13.10189 17129 ft 405 kts 281°
2026-05-08 13:34 51.37032 13.05738 17708 ft 408 kts 280°
2026-05-08 13:34 51.37567 13.01252 18277 ft 411 kts 280°
2026-05-08 13:35 51.38103 12.96737 18780 ft 415 kts 280°
2026-05-08 13:35 51.38639 12.92188 19265 ft 417 kts 280°
2026-05-08 13:35 51.39174 12.87613 19751 ft 420 kts 280°
2026-05-08 13:35 51.39590 12.84055 20133 ft 421 kts 280°
2026-05-08 13:36 51.40133 12.79424 20613 ft 424 kts 280°
2026-05-08 13:36 51.40679 12.74775 21075 ft 426 kts 280°
2026-05-08 13:36 51.41226 12.70102 21510 ft 428 kts 280°
2026-05-08 13:36 51.41785 12.65416 21908 ft 429 kts 282°
2026-05-08 13:37 51.42649 12.60818 22309 ft 432 kts 290°
2026-05-08 13:37 51.43927 12.56449 22630 ft 435 kts 298°
2026-05-08 13:37 51.45569 12.52355 22910 ft 438 kts 306°
2026-05-08 13:37 51.47612 12.48723 23134 ft 441 kts 316°
2026-05-08 13:38 51.49971 12.45502 23192 ft 449 kts 319°
2026-05-08 13:38 51.52407 12.42288 23188 ft 455 kts 319°
2026-05-08 13:38 51.54877 12.39080 23190 ft 457 kts 319°
2026-05-08 13:38 51.57352 12.35875 23192 ft 458 kts 319°
2026-05-08 13:39 51.59827 12.32649 23191 ft 458 kts 319°
2026-05-08 13:39 51.62287 12.29411 23187 ft 457 kts 319°
2026-05-08 13:39 51.64744 12.26152 23191 ft 457 kts 319°
2026-05-08 13:39 51.67193 12.22877 23189 ft 457 kts 319°
2026-05-08 13:40 51.69637 12.19600 23189 ft 457 kts 319°
2026-05-08 13:40 51.72082 12.16324 23190 ft 457 kts 319°
2026-05-08 13:40 51.74528 12.13050 23188 ft 457 kts 319°
2026-05-08 13:40 51.76976 12.09774 23190 ft 457 kts 319°
2026-05-08 13:41 51.79424 12.06492 23194 ft 457 kts 319°
2026-05-08 13:41 51.81870 12.03212 23196 ft 457 kts 319°
2026-05-08 13:41 51.84291 11.99967 23198 ft 457 kts 319°
2026-05-08 13:41 51.86769 11.96641 23200 ft 457 kts 319°
2026-05-08 13:42 51.89180 11.93399 23200 ft 457 kts 319°
2026-05-08 13:42 51.91626 11.90101 23201 ft 457 kts 319°
2026-05-08 13:42 51.94070 11.86798 23200 ft 457 kts 319°
2026-05-08 13:42 51.96507 11.83496 23197 ft 457 kts 318°
2026-05-08 13:43 51.98821 11.79980 23199 ft 456 kts 311°
2026-05-08 13:43 52.00787 11.75958 23199 ft 454 kts 303°
2026-05-08 13:43 52.02447 11.71605 23198 ft 454 kts 300°
2026-05-08 13:43 52.04082 11.67227 23199 ft 454 kts 300°
2026-05-08 13:44 52.05720 11.62839 23200 ft 454 kts 300°
2026-05-08 13:44 52.07357 11.58456 23198 ft 454 kts 300°
2026-05-08 13:44 52.08992 11.54076 23199 ft 454 kts 300°
2026-05-08 13:44 52.10628 11.49683 23195 ft 454 kts 300°
2026-05-08 13:45 52.12256 11.45295 23199 ft 454 kts 300°
2026-05-08 13:45 52.13888 11.40892 23199 ft 454 kts 300°
2026-05-08 13:45 52.15514 11.36503 23199 ft 454 kts 300°
2026-05-08 13:45 52.17142 11.32098 23199 ft 454 kts 300°
2026-05-08 13:46 52.18766 11.27691 23199 ft 454 kts 300°
2026-05-08 13:46 52.20389 11.23277 23195 ft 454 kts 300°
2026-05-08 13:46 52.22013 11.18862 23198 ft 454 kts 300°
2026-05-08 13:46 52.23638 11.14437 23193 ft 454 kts 300°
2026-05-08 13:47 52.25256 11.10016 23196 ft 454 kts 300°
2026-05-08 13:47 52.26872 11.05590 23196 ft 454 kts 300°
2026-05-08 13:47 52.28487 11.01161 23198 ft 454 kts 300°
2026-05-08 13:47 52.30099 10.96736 23201 ft 454 kts 300°
2026-05-08 13:48 52.31713 10.92296 23199 ft 454 kts 300°
2026-05-08 13:48 52.33284 10.87822 23198 ft 454 kts 296°
2026-05-08 13:48 52.34454 10.83046 23200 ft 453 kts 286°
2026-05-08 13:48 52.35122 10.78029 23202 ft 452 kts 277°
2026-05-08 13:49 52.35278 10.72900 23200 ft 452 kts 268°
2026-05-08 13:49 52.34917 10.67790 23200 ft 452 kts 259°
2026-05-08 13:49 52.34303 10.62736 23203 ft 452 kts 259°
2026-05-08 13:49 52.33692 10.57695 23205 ft 452 kts 259°
2026-05-08 13:50 52.33085 10.52648 23201 ft 453 kts 259°
2026-05-08 13:50 52.32477 10.47598 23203 ft 453 kts 259°
2026-05-08 13:50 52.31866 10.42558 23204 ft 453 kts 259°
2026-05-08 13:50 52.31249 10.37500 23198 ft 453 kts 259°
2026-05-08 13:51 52.30627 10.32463 23199 ft 453 kts 259°
2026-05-08 13:51 52.30114 10.27401 23190 ft 452 kts 266°
2026-05-08 13:51 52.30302 10.22283 23189 ft 453 kts 281°
2026-05-08 13:51 52.31317 10.17425 23189 ft 454 kts 296°
2026-05-08 13:52 52.33070 10.13141 23191 ft 455 kts 307°
2026-05-08 13:52 52.35011 10.09052 23184 ft 455 kts 307°
2026-05-08 13:52 52.36953 10.04960 23184 ft 455 kts 307°
2026-05-08 13:52 52.38823 10.00788 23180 ft 455 kts 302°
2026-05-08 13:53 52.40490 9.96391 23185 ft 454 kts 301°
2026-05-08 13:53 52.42154 9.91982 23182 ft 454 kts 301°
2026-05-08 13:53 52.43814 9.87573 23179 ft 454 kts 301°
2026-05-08 13:53 52.45474 9.83164 23176 ft 454 kts 301°
2026-05-08 13:54 52.47132 9.78756 23179 ft 454 kts 301°
2026-05-08 13:54 52.48790 9.74342 23177 ft 454 kts 301°
2026-05-08 13:54 52.50444 9.69926 23175 ft 454 kts 300°
2026-05-08 13:54 52.52093 9.65507 23174 ft 454 kts 300°
2026-05-08 13:55 52.53741 9.61083 23176 ft 454 kts 300°
2026-05-08 13:55 52.55392 9.56650 23177 ft 454 kts 300°
2026-05-08 13:55 52.58683 9.47796 23174 ft 454 kts 300°
2026-05-08 13:56 52.60328 9.43356 23177 ft 454 kts 300°
2026-05-08 13:56 52.62082 9.39043 23172 ft 455 kts 307°
2026-05-08 13:56 52.64208 9.35171 23172 ft 456 kts 315°
2026-05-08 13:56 52.66635 9.31789 23174 ft 457 kts 320°
2026-05-08 13:57 52.69101 9.28486 23160 ft 457 kts 319°
2026-05-08 13:57 52.71566 9.25174 22887 ft 456 kts 319°
2026-05-08 13:57 52.74016 9.21873 22616 ft 454 kts 319°
2026-05-08 13:57 52.76452 9.18579 22245 ft 450 kts 319°
2026-05-08 13:58 52.78868 9.15304 21065 ft 451 kts 319°
2026-05-08 13:58 52.81283 9.12026 20256 ft 446 kts 319°
2026-05-08 13:58 52.83668 9.08780 19279 ft 444 kts 319°
2026-05-08 13:58 52.86036 9.05556 18543 ft 437 kts 319°
2026-05-08 13:59 52.88369 9.02385 17659 ft 432 kts 319°
2026-05-08 13:59 52.89931 9.00262 17072 ft 428 kts 319°
2026-05-08 13:59 52.92215 8.97152 16229 ft 423 kts 319°
2026-05-08 13:59 52.94475 8.94065 15415 ft 419 kts 319°
2026-05-08 14:00 52.96710 8.91010 14644 ft 414 kts 319°
2026-05-08 14:00 52.98922 8.87983 13911 ft 410 kts 319°
2026-05-08 14:00 53.01111 8.84976 13123 ft 406 kts 319°
2026-05-08 14:00 53.03260 8.82023 12798 ft 393 kts 319°
2026-05-08 14:01 53.05318 8.79191 12665 ft 375 kts 319°
2026-05-08 14:01 53.07281 8.76486 12536 ft 358 kts 319°
2026-05-08 14:01 53.09160 8.73895 12408 ft 343 kts 319°
2026-05-08 14:01 53.10961 8.71413 12276 ft 330 kts 319°
2026-05-08 14:02 53.12701 8.69014 12148 ft 319 kts 319°
2026-05-08 14:02 53.14386 8.66687 12023 ft 310 kts 319°
2026-05-08 14:02 53.16020 8.64423 11878 ft 302 kts 319°
2026-05-08 14:02 53.17623 8.62197 11628 ft 299 kts 319°
2026-05-08 14:03 53.19219 8.59979 11321 ft 298 kts 319°
2026-05-08 14:03 53.20807 8.57769 11021 ft 297 kts 319°
2026-05-08 14:03 53.22390 8.55566 10718 ft 297 kts 319°
2026-05-08 14:03 53.23975 8.53363 10427 ft 296 kts 319°
2026-05-08 14:04 53.25497 8.51063 10161 ft 295 kts 311°
2026-05-08 14:04 53.26647 8.48254 9851 ft 293 kts 295°
2026-05-08 14:04 53.27358 8.45088 9440 ft 291 kts 286°
2026-05-08 14:04 53.27952 8.41905 8985 ft 291 kts 286°
2026-05-08 14:05 53.28562 8.38637 8555 ft 290 kts 286°
2026-05-08 14:05 53.29163 8.35422 8132 ft 290 kts 286°
2026-05-08 14:05 53.29764 8.32214 7729 ft 289 kts 287°
2026-05-08 14:05 53.30367 8.29008 7321 ft 288 kts 286°
2026-05-08 14:06 53.30962 8.25814 6837 ft 288 kts 287°
2026-05-08 14:06 53.31555 8.22623 6438 ft 287 kts 286°
2026-05-08 14:06 53.32146 8.19436 6058 ft 287 kts 287°
2026-05-08 14:06 53.32739 8.16249 5820 ft 287 kts 287°
2026-05-08 14:07 53.33371 8.13105 5619 ft 284 kts 289°
2026-05-08 14:07 53.34039 8.09997 5377 ft 284 kts 290°
2026-05-08 14:07 53.34722 8.06902 5144 ft 282 kts 290°
2026-05-08 14:07 53.35397 8.03847 4976 ft 278 kts 290°
2026-05-08 14:08 53.36054 8.00830 4799 ft 275 kts 290°
2026-05-08 14:08 53.36699 7.97831 4633 ft 271 kts 290°
2026-05-08 14:08 53.37328 7.94877 4513 ft 269 kts 290°
2026-05-08 14:08 53.37953 7.91929 4319 ft 269 kts 290°
2026-05-08 14:09 53.38565 7.89030 4183 ft 267 kts 290°
2026-05-08 14:09 53.39197 7.86057 4007 ft 268 kts 290°
2026-05-08 14:09 53.39806 7.83177 3850 ft 265 kts 290°
2026-05-08 14:09 53.40418 7.80280 3719 ft 262 kts 290°
2026-05-08 14:10 53.41045 7.77368 3477 ft 263 kts 291°
2026-05-08 14:10 53.41761 7.74609 3308 ft 259 kts 303°
2026-05-08 14:10 53.43059 7.72556 3201 ft 253 kts 331°
2026-05-08 14:10 53.44654 7.71414 3008 ft 246 kts 347°
2026-05-08 14:11 53.46276 7.70698 2820 ft 244 kts 348°
2026-05-08 14:11 53.47935 7.69916 2691 ft 244 kts 346°
2026-05-08 14:11 53.49552 7.69097 2621 ft 242 kts 346°
2026-05-08 14:11 53.51142 7.68281 2627 ft 236 kts 346°
2026-05-08 14:12 53.52675 7.67453 2573 ft 228 kts 345°
2026-05-08 14:12 53.54140 7.66669 2541 ft 221 kts 346°
2026-05-08 14:12 53.55637 7.65923 2530 ft 221 kts 347°
2026-05-08 14:12 53.57117 7.65225 2335 ft 221 kts 348°
2026-05-08 14:13 53.58610 7.64579 2131 ft 221 kts 347°
2026-05-08 14:13 53.59939 7.63285 1951 ft 225 kts 317°
2026-05-08 14:13 53.60670 7.60962 1642 ft 227 kts 282°
2026-05-08 14:13 53.60782 7.58373 1564 ft 219 kts 272°
2026-05-08 14:14 53.60699 7.55896 1571 ft 205 kts 263°
2026-05-08 14:14 53.60416 7.53664 1668 ft 189 kts 253°
2026-05-08 14:14 53.60036 7.51605 1615 ft 181 kts 243°
2026-05-08 14:14 53.59192 7.50134 1532 ft 169 kts 203°
2026-05-08 14:15 53.58080 7.49889 1386 ft 158 kts 169°
2026-05-08 14:15 53.57083 7.50347 1258 ft 144 kts 150°
2026-05-08 14:15 53.56276 7.51189 1234 ft 129 kts 141°
2026-05-08 14:15 53.55557 7.52048 1167 ft 123 kts 139°
2026-05-08 14:16 53.54888 7.52918 1066 ft 121 kts 136°
2026-05-08 14:16 53.54276 7.53899 1004 ft 119 kts 129°
2026-05-08 14:16 53.53783 7.54978 911 ft 117 kts 115°
2026-05-08 14:16 53.53583 7.56258 833 ft 116 kts 95°
2026-05-08 14:17 53.53623 7.57623 693 ft 117 kts 87°
2026-05-08 14:17 53.53794 7.58960 577 ft 117 kts 79°
2026-05-08 14:17 53.53964 7.60324 486 ft 121 kts 80°
2026-05-08 14:17 53.54153 7.61719 350 ft 121 kts 80°
2026-05-08 14:18 53.54321 7.63070 239 ft 116 kts 82°
2026-05-08 14:18 53.54480 7.64294 123 ft 115 kts 82°
2026-05-08 14:18 53.54649 7.65584 37 ft 106 kts 86°
2026-05-08 14:18 53.54790 7.66733 31 ft 105 kts 77°
2026-05-08 14:19 53.55001 7.68329 383 ft 155 kts 81°
2026-05-08 14:19 53.55227 7.70060 1241 ft 148 kts 79°
2026-05-08 14:19 53.55450 7.71883 1436 ft 165 kts 78°
2026-05-08 14:19 53.56056 7.73576 1550 ft 184 kts 44°
2026-05-08 14:20 53.57304 7.74456 1449 ft 213 kts
2026-05-08 14:20 53.58843 7.73945 1325 ft 240 kts 334°
2026-05-08 14:20 53.60036 7.71932 1474 ft 251 kts 300°
2026-05-08 14:20 53.60433 7.69039 1485 ft 261 kts 268°
2026-05-08 14:21 53.60206 7.65993 1564 ft 261 kts 259°
2026-05-08 14:21 53.59831 7.63079 1582 ft 248 kts 256°
2026-05-08 14:21 53.59435 7.60312 1563 ft 237 kts 255°
2026-05-08 14:21 53.59039 7.57713 1578 ft 223 kts 255°
2026-05-08 14:22 53.58643 7.55243 1549 ft 214 kts 254°
2026-05-08 14:22 53.58081 7.53071 1599 ft 195 kts 229°
2026-05-08 14:22 53.57018 7.51949 1452 ft 175 kts 188°
2026-05-08 14:22 53.55857 7.52149 1357 ft 165 kts 160°
2026-05-08 14:23 53.54806 7.52804 1291 ft 161 kts 154°
2026-05-08 14:23 53.53754 7.53547 1077 ft 164 kts 149°
2026-05-08 14:23 53.53294 7.55003 967 ft 145 kts 80°
2026-05-08 14:23 53.53498 7.56562 901 ft 127 kts 78°
2026-05-08 14:24 53.53668 7.57959 687 ft 121 kts 80°
2026-05-08 14:24 53.53839 7.59340 521 ft 121 kts 79°
2026-05-08 14:24 53.54029 7.60739 372 ft 122 kts 80°
2026-05-08 14:24 53.54199 7.62097 281 ft 115 kts 82°
2026-05-08 14:25 53.54365 7.63389 156 ft 112 kts 82°
2026-05-08 14:25 53.54528 7.64668 65 ft 111 kts 82°
2026-05-08 14:25 53.54673 7.65837 37 ft 97 kts 77°
2026-05-08 14:25 53.54840 7.67123 40 ft 146 kts 78°
2026-05-08 14:26 53.55096 7.68911 681 ft 160 kts 78°
2026-05-08 14:26 53.55351 7.70766 1121 ft 167 kts 78°
2026-05-08 14:26 53.55600 7.72786 1369 ft 188 kts 79°
2026-05-08 14:26 53.55918 7.75068 1410 ft 214 kts 68°
2026-05-08 14:27 53.56964 7.76995 1465 ft 239 kts 30°
2026-05-08 14:27 53.58641 7.77505 1541 ft 255 kts 355°
2026-05-08 14:27 53.60230 7.76194 1497 ft 261 kts 318°
2026-05-08 14:27 53.61198 7.73618 1465 ft 264 kts 289°
2026-05-08 14:28 53.61326 7.70565 1430 ft 263 kts 259°
2026-05-08 14:28 53.60738 7.67681 1548 ft 258 kts 256°
2026-05-08 14:28 53.60350 7.64699 1551 ft 258 kts 257°
2026-05-08 14:28 53.60007 7.61843 1660 ft 241 kts 257°
2026-05-08 14:29 53.59665 7.59145 1594 ft 230 kts 256°
2026-05-08 14:29 53.59304 7.56595 1609 ft 219 kts 256°
2026-05-08 14:29 53.58924 7.54204 1580 ft 203 kts 246°
2026-05-08 14:29 53.58038 7.52562 1552 ft 181 kts 205°
2026-05-08 14:30 53.56901 7.52253 1411 ft 161 kts 167°
2026-05-08 14:30 53.55885 7.52898 1233 ft 153 kts 150°
2026-05-08 14:30 53.54961 7.53696 1100 ft 145 kts 147°
2026-05-08 14:30 53.54132 7.54524 1075 ft 134 kts 134°
2026-05-08 14:31 53.53619 7.55750 1003 ft 124 kts 109°
2026-05-08 14:31 53.53555 7.57157 902 ft 123 kts 81°
2026-05-08 14:31 53.53756 7.58521 804 ft 115 kts 78°
2026-05-08 14:32 53.54089 7.61211 474 ft 117 kts 82°
2026-05-08 14:32 53.54249 7.62501 347 ft 112 kts 83°
2026-05-08 14:32 53.54420 7.63814 156 ft 113 kts 83°
2026-05-08 14:32 53.54585 7.65085 49 ft 112 kts 83°
2026-05-08 14:33 53.54721 7.66190 33 ft 76 kts 77°
2026-05-08 14:33 53.54794 7.66756 33 ft 13 kts 78°
2026-05-08 14:33 53.54834 7.66837 34 ft 9 kts
2026-05-08 14:33 53.54906 7.66813 34 ft 8 kts 330°
2026-05-08 14:34 53.54906 7.66734 34 ft 9 kts 258°
2026-05-08 14:34 53.54889 7.66595 32 ft 15 kts 258°
2026-05-08 14:34 53.54862 7.66392 34 ft 21 kts 258°
2026-05-08 14:34 53.54827 7.66119 34 ft 27 kts 257°
2026-05-08 14:35 53.54788 7.65825 34 ft 25 kts 258°
2026-05-08 14:35 53.54747 7.65504 34 ft 30 kts 258°
2026-05-08 14:35 53.54714 7.65240 34 ft 16 kts 258°
2026-05-08 14:35 53.54703 7.65095 34 ft 11 kts 287°
2026-05-08 14:36 53.54757 7.64956 33 ft 15 kts 303°
2026-05-08 14:36 53.54792 7.64881 34 ft 5 kts 281°
2026-05-08 14:36 53.54757 7.64833 34 ft 9 kts 175°
2026-05-08 14:36 53.54743 7.64863 32 ft 2 kts 122°
2026-05-08 14:37 53.54739 7.64871 33 ft 1 kts 122°
2026-05-08 14:37 53.54739 7.64874 34 ft 0 kts 122°